This is the latest recevied weather packets stored in our database for station/object KK7ISX. If no packets are shown the sender has not sent any weather packets the latest 10 day(s).
| Time | Temp. | Humidity | Pressure | Rain* | Wind** | Luminosity | Snow |
|---|---|---|---|---|---|---|---|
| 1777579012 | 20° C | 38% | 1020.1 hPa | 0 mm | - | 740 W/m² | - |
| 1777578707 | 20° C | 36% | 1020.3 hPa | 0 mm | - | 742 W/m² | - |
| 1777578406 | 20° C | 39% | 1020.2 hPa | 0 mm | - | 745 W/m² | - |
| 1777578102 | 19.44° C | 36% | 1020.3 hPa | 0 mm | - | 748 W/m² | - |
| 1777577798 | 19.44° C | 36% | 1020.4 hPa | 0 mm | - | 751 W/m² | - |
| 1777577494 | 19.44° C | 37% | 1020.5 hPa | 0 mm | - | 751 W/m² | - |
| 1777577191 | 19.44° C | 38% | 1020.8 hPa | 0 mm | - | 754 W/m² | - |
| 1777576887 | 18.89° C | 36% | 1020.7 hPa | 0 mm | - | 754 W/m² | - |
| 1777576581 | 18.89° C | 36% | 1020.5 hPa | 0 mm | - | 756 W/m² | - |
| 1777576277 | 18.89° C | 39% | 1020.7 hPa | 0 mm | - | 755 W/m² | - |
| 1777575974 | 18.89° C | 37% | 1021 hPa | 0 mm | - | 756 W/m² | - |
| 1777575670 | 18.89° C | 37% | 1020.9 hPa | 0 mm | - | 754 W/m² | - |
| 1777575365 | 18.89° C | 38% | 1020.9 hPa | 0 mm | - | 752 W/m² | - |
| 1777575062 | 19.44° C | 37% | 1021 hPa | 0 mm | - | 750 W/m² | - |
| 1777574758 | 18.33° C | 38% | 1021.2 hPa | 0 mm | - | 749 W/m² | - |
| 1777574456 | 18.33° C | 40% | 1021.1 hPa | 0 mm | - | 749 W/m² | - |
| 1777574156 | 18.89° C | 40% | 1021.3 hPa | 0 mm | - | 747 W/m² | - |
| 1777573852 | 17.78° C | 40% | 1021.2 hPa | 0 mm | - | 746 W/m² | - |
| 1777573547 | 18.33° C | 39% | 1021.3 hPa | 0 mm | - | 745 W/m² | - |
| 1777573244 | 17.78° C | 40% | 1021.4 hPa | 0 mm | - | 742 W/m² | - |
| 1777572940 | 18.33° C | 41% | 1021.3 hPa | 0 mm | - | 739 W/m² | - |
| 1777572635 | 17.78° C | 41% | 1021.4 hPa | 0 mm | - | 732 W/m² | - |
| 1777572330 | 18.33° C | 40% | 1021.5 hPa | 0 mm | - | 725 W/m² | - |
| 1777572027 | 17.78° C | 41% | 1021.4 hPa | 0 mm | - | 724 W/m² | - |
| 1777571726 | 17.78° C | 40% | 1021.6 hPa | 0 mm | - | 717 W/m² | - |
* Rain latest hour (hover to see other rain measurements)
** Current wind speed in m/s (hover to see current wind gust speed)